Location: Tamazert
(32.6352°N, 5.2072°W)
Time: 20:08:01
(UTC+00:00)

deb Explorer IX - Pass Details

Date: 06 October 2022
Orbit: 533 x 1057 km, 38.8° (Epoch: 06 December)

Event Time Altitude Azimuth Distance (km) Brightness Sun altitude
Exits shadow 03:39:38 18° 108° (ESE) 1,508 ? -33.8°
Drops below altitude 10° 03:41:22 10° 90° (E) 1,995 ? -33.5°
Sets 03:44:14 0° 76° (ENE) 2,999 ? -32.9°
